,

(GMT )
Kudat

Weather History for WBKT - August, 2012

Change the Weather History Date:

Friday, August 17, 2012

  Actual Average Record
Temperature  
Mean Temperature 81 °F -  
Max Temperature 89 °F - - ()
Min Temperature 73 °F - - ()
Cooling Degree Days 16    
Growing Degree Days 31 (Base 50)    
Moisture  
Dew Point 75 °F    
Average Humidity 79    
Maximum Humidity 100    
Minimum Humidity 62    
Precipitation  
Precipitation 0.00 in - - ()
Sea Level Pressure  
Sea Level Pressure 29.77 in    
Wind  
Wind Speed 5 mph ()    
Max Wind Speed 10 mph    
Max Gust Speed -    
Visibility 6.2 miles    
Events      
T = Trace of Precipitation, MM = Missing Value Source: Averaged Metar Reports

Daily Weather History Graph

Daily Weather History Graph

Search for Another Location

Airport or City:

Trip Planner

Search our weather history database for the weather conditions in past years. The results will help you decide how hot, cold, wet, or windy it might be!

Date:

Astronomy

Aug. 17, 2012 Rise Set
Actual Time 6:06 AM MYT 6:26 PM MYT
Civil Twilight 5:45 AM MYT 6:48 PM MYT
Nautical Twilight 5:20 AM MYT 7:13 PM MYT
Astronomical Twilight 4:55 AM MYT 7:38 PM MYT
Moon 5:27 AM MYT (8/17) 6:02 PM MYT (8/17)
Length of Visible Light 13h 02m
Length of Day
12h 19m
Waning Crescent, 0% of the Moon is Illuminated
Aug 17
Waning Crescent
Aug 17
New
Aug 24
First Quarter
Aug 31
Full
Sep 8
Last Quarter

Hourly Weather History & Observations

Time (MYT) Temp. Heat Index Dew Point Humidity Pressure Visibility Wind Dir Wind Speed Gust Speed Precip Events Conditions
12:00 AM 80.6 °F 87.1 °F 77.0 °F 89% 29.83 in 6.2 mi SSE 9.2 mph - N/A   Mostly Cloudy
1:00 AM 80.6 °F 85.4 °F 73.4 °F 79% 29.80 in 6.2 mi SSE 6.9 mph - N/A   Mostly Cloudy
2:00 AM 80.6 °F 85.4 °F 73.4 °F 79% 29.77 in 6.2 mi South 4.6 mph - N/A   Mostly Cloudy
3:00 AM 77.0 °F - 73.4 °F 89% 29.74 in 6.2 mi WNW 1.2 mph - N/A   Mostly Cloudy
4:00 AM 75.2 °F - 73.4 °F 94% 29.74 in 6.2 mi WSW 2.3 mph - N/A   Mostly Cloudy
5:00 AM 73.4 °F - 73.4 °F 100% 29.74 in 6.2 mi West 2.3 mph - N/A   Mostly Cloudy
6:00 AM 73.4 °F - 73.4 °F 100% 29.74 in 6.2 mi SW 2.3 mph - N/A   Mostly Cloudy
7:00 AM 75.2 °F - 75.2 °F 100% 29.77 in 6.2 mi West 1.2 mph - N/A   Mostly Cloudy
8:00 AM 84.2 °F 92.3 °F 75.2 °F 74% 29.77 in 6.2 mi East 2.3 mph - N/A   Mostly Cloudy
9:00 AM 84.2 °F 94.1 °F 77.0 °F 79% 29.80 in 6.2 mi SSE 3.5 mph - N/A   Mostly Cloudy
10:00 AM 84.2 °F 94.1 °F 77.0 °F 79% 29.80 in 6.2 mi East 4.6 mph - N/A   Mostly Cloudy
11:00 AM 87.8 °F 97.6 °F 75.2 °F 66% 29.80 in 6.2 mi East 5.8 mph - N/A   Mostly Cloudy
12:00 PM 86.0 °F 95.1 °F 75.2 °F 70% 29.77 in 6.2 mi East 6.9 mph - N/A   Mostly Cloudy
1:00 PM 89.6 °F 99.8 °F 75.2 °F 62% 29.74 in 6.2 mi NNE 5.8 mph - N/A   Mostly Cloudy
2:00 PM 89.6 °F 102.2 °F 77.0 °F 66% 29.71 in 6.2 mi WNW 6.9 mph - N/A   Mostly Cloudy
3:00 PM 89.6 °F 99.8 °F 75.2 °F 62% 29.71 in 6.2 mi West 10.4 mph - N/A   Mostly Cloudy
4:00 PM 89.6 °F 102.2 °F 77.0 °F 66% 29.71 in 6.2 mi WNW 8.1 mph - N/A   Mostly Cloudy
5:00 PM 87.8 °F 97.6 °F 75.2 °F 66% 29.71 in 6.2 mi West 5.8 mph - N/A   Mostly Cloudy
6:00 PM 86.0 °F 96.9 °F 77.0 °F 74% 29.74 in 6.2 mi WNW 3.5 mph - N/A   Mostly Cloudy
7:00 PM 82.4 °F 89.5 °F 75.2 °F 79% 29.77 in 6.2 mi WSW 5.8 mph - N/A   Mostly Cloudy
8:00 PM 82.4 °F 88.2 °F 73.4 °F 74% 29.77 in 6.2 mi NNW 5.8 mph - N/A   Mostly Cloudy
9:00 PM 82.4 °F 88.2 °F 73.4 °F 74% 29.80 in 6.2 mi West 3.5 mph - N/A   Mostly Cloudy
10:00 PM 80.6 °F 86.2 °F 75.2 °F 84% 29.83 in 6.2 mi North 6.9 mph - N/A   Mostly Cloudy
11:00 PM 78.8 °F - 73.4 °F 83% 29.86 in 6.2 mi WSW 9.2 mph - N/A   Mostly Cloudy